Regional Weather Roundup
Issued by NWS

Home | Current Version | Previous Version | Text Only | Print | Product List | Glossary Off
Versions: 1 2 3 4 5 6 7 8 9 10 11 12 13 14 15 16 17 18 19 20 21 22 23 24 25 26 27 28 29 30 31 32 33 34 35 36 37 38 39 40 41 42 43 44 45 46 47 48 49 50

000
ASUS43 KMKX 290611
RWRWI

WISCONSIN REGIONAL WEATHER ROUNDUP
NATIONAL WEATHER SERVICE MILWAUKEE/SULLIVAN WI
100 AM CDT SAT APR 29 2017

NOTE: "FAIR" INDICATES FEW OR NO CLOUDS BELOW 12,000 FEET WITH NO
SIGNIFICANT WEATHER AND/OR OBSTRUCTIONS TO VISIBILITY.

WIZ001-002-006>008-014>016-023>028-290700-
NORTHWEST WISCONSIN

CITY           SKY/WX    TMP DP  RH WIND       PRES   REMARKS
SUPERIOR ARPT  CLEAR     29  27  92 CALM      30.20R
6HR MIN TEMP:  29; 6HR MAX TEMP:  49;

ASHLAND        CLEAR     29  27  92 SW5       30.19R WCI  24
6HR MIN TEMP:  28; 6HR MAX TEMP:  47;

HAYWARD        CLEAR     30  26  85 CALM      30.19R
6HR MIN TEMP:  30; 6HR MAX TEMP:  48;

SIREN          CLEAR     38  27  64 NE7       30.19R WCI  32
6HR MIN TEMP:  38; 6HR MAX TEMP:  49;

CUMBERLAND     CLOUDY    36  28  75 NE14      30.16R WCI  27
RICE LAKE      CLOUDY    38  30  73 N14       30.16R WCI  29
6HR MIN TEMP:  36; 6HR MAX TEMP:  47;

CHETEK         CLOUDY    38  30  71 NE8       30.15R WCI  32
6HR MIN TEMP:  33; 6HR MAX TEMP:  45;

LADYSMITH      CLOUDY    35  28  75 NE9       30.17R WCI  27
6HR MIN TEMP:  35; 6HR MAX TEMP:  46;

EAU CLAIRE     PTCLDY    33  31  92 N3        30.12R
6HR MIN TEMP:  32; 6HR MAX TEMP:  48;

MENOMONIE      CLOUDY    36  32  86 CALM      30.13R
6HR MIN TEMP:  36; 6HR MAX TEMP:  47;

NEW RICHMOND   PTCLDY    38  28  67 NE10      30.15R WCI  32
6HR MIN TEMP:  34; 6HR MAX TEMP:  48;

OSCEOLA        CLEAR     39  29  67 N6        30.19R WCI  34
6HR MIN TEMP:  34; 6HR MAX TEMP:  48;

$$

WIZ003>005-009-010-017-018-290700-
NORTH CENTRAL WISCONSIN

CITY           SKY/WX    TMP DP  RH WIND       PRES   REMARKS
MANITOWISH WTR NOT AVBL
ARBOR VITAE    CLEAR     32  28  87 CALM      30.13R
6HR MIN TEMP:  32; 6HR MAX TEMP:  40;

WOODRUFF       CLEAR     32  28  87 CALM      30.13R
6HR MIN TEMP:  32; 6HR MAX TEMP:  40;

RHINELANDER    CLEAR     31  26  82 N3        30.13R
6HR MIN TEMP:  31; 6HR MAX TEMP:  41;

EAGLE RIVER    CLEAR     29  24  81 N5        30.12R WCI  24
6HR MIN TEMP:  29; 6HR MAX TEMP:  37;

LAND O LAKES   CLEAR     30  26  86 CALM      30.13R
6HR MIN TEMP:  29; 6HR MAX TEMP:  38;

PHILLIPS       CLEAR     29  26  88 CALM      30.14R
6HR MIN TEMP:  29; 6HR MAX TEMP:  42;

TOMAHAWK       CLEAR     30  26  86 CALM      30.14R
6HR MIN TEMP:  30; 6HR MAX TEMP:  41;

MEDFORD        CLOUDY    33  28  82 NE9       30.13R WCI  26
6HR MIN TEMP:  32; 6HR MAX TEMP:  43;

MERRILL        CLEAR     33  29  85 N5        30.13R WCI  28
6HR MIN TEMP:  30; 6HR MAX TEMP:  44;

$$

WIZ029-030-035-036-043>047-290700-
CENTRAL WISCONSIN

CITY           SKY/WX    TMP DP  RH WIND       PRES   REMARKS
WAUSAU         CLOUDY    36  28  73 N10       30.11R WCI  28
6HR MIN TEMP:  35; 6HR MAX TEMP:  45;

MOSINEE        CLOUDY    36  30  80 N5        30.12R WCI  32
MARSHFIELD     CLOUDY    38  29  70 N5        30.11R WCI  34
6HR MIN TEMP:  38; 6HR MAX TEMP:  45;

STEVENS POINT  CLOUDY    35  32  88 CALM      30.12R
6HR MIN TEMP:  35; 6HR MAX TEMP:  45;

WAUPACA        CLOUDY    45  32  60 N3        30.12R
6HR MIN TEMP:  45; 6HR MAX TEMP:  49;

WAUTOMA        CLOUDY    44  31  60 NE9       30.11R
6HR MIN TEMP:  44; 6HR MAX TEMP:  48;

WISC RAPIDS    CLOUDY    42  31  64 NE5       30.12R
6HR MIN TEMP:  42; 6HR MAX TEMP:  48;

CAMP DOUGLAS   PTCLDY    43  32  65 N5        30.10R
6HR MIN TEMP:  43; 6HR MAX TEMP:  46;

$$

WIZ011>013-019>022-031-037>040-048>050-290700-
NORTHEAST WISCONSIN

CITY           SKY/WX    TMP DP  RH WIND       PRES   REMARKS
ANTIGO         CLEAR     32  28  84 N10       30.11R WCI  23
6HR MIN TEMP:  31; 6HR MAX TEMP:  41;

SHAWANO        MOCLDY    40  32  73 CALM      30.12R
6HR MIN TEMP:  40; 6HR MAX TEMP:  49;

OCONTO         CLOUDY    40  29  64 N5        30.11R
6HR MIN TEMP:  40; 6HR MAX TEMP:  48;

STURGEON BAY   CLOUDY    42  30  62 N9        30.10R
6HR MIN TEMP:  41; 6HR MAX TEMP:  43;

GREEN BAY      CLOUDY    44  31  60 N12       30.11R
6HR MIN TEMP:  44; 6HR MAX TEMP:  50;

MANITOWOC      CLOUDY    43  36  76 N7        30.09R
6HR MIN TEMP:  41; 6HR MAX TEMP:  43; 6HR PCP:  0.06;

APPLETON       CLOUDY    43  30  61 N8        30.09R
CLINTONVILLE   MOCLDY    41  30  65 N5        30.11R
OSHKOSH        CLOUDY    45  32  60 N15       30.10R
6HR MIN TEMP:  45; 6HR MAX TEMP:  49; 6HR PCP:  0.03;

$$

WIZ032>034-041-042-053>061-290700-
SOUTHWEST WISCONSIN

CITY           SKY/WX    TMP DP  RH WIND       PRES   REMARKS
LA CROSSE      MOCLDY    44  32  62 N5        30.13R
6HR MIN TEMP:  41; 6HR MAX TEMP:  49;

SPARTA         CLOUDY    40  34  80 CALM      30.12R
6HR MIN TEMP:  38; 6HR MAX TEMP:  46;

VIROQUA        CLOUDY    40  34  79 N5        30.09R
6HR MIN TEMP:  40; 6HR MAX TEMP:  43; 6HR PCP:  0.01;

BOSCOBEL       CLOUDY    46  40  79 N3        30.10R
6HR MIN TEMP:  45; 6HR MAX TEMP:  47; 6HR PCP: TRACE;

PRAIRIE DU CHI CLOUDY    44  38  79 N3        30.09R
6HR MIN TEMP:  43; 6HR MAX TEMP:  45;

PLATTEVILLE    CLOUDY    44  42  93 N7        30.05S
6HR MIN TEMP:  44; 6HR MAX TEMP:  46;

$$

WIZ056-057-062-063-064-067-068-290700-
SOUTH CENTRAL WISCONSIN

CITY           SKY/WX    TMP DP  RH WIND       PRES   REMARKS
REEDSBURG      CLOUDY    43  38  84 N5        30.08R
6HR MIN TEMP:  43; 6HR MAX TEMP:  45;

BARABOO/DELLS  CLOUDY    43  37  80 NE6       30.08S
6HR MIN TEMP:  42; 6HR MAX TEMP:  45;

LONE ROCK      CLOUDY    45  40  82 CALM      30.09R
6HR MIN TEMP:  45; 6HR MAX TEMP:  47; 6HR PCP: TRACE;

MINERAL POINT  CLOUDY    45  41  87 N10       30.05S
MADISON        CLOUDY    44  40  85 N7        30.05F
6HR MIN TEMP:  44; 6HR MAX TEMP:  46; 6HR PCP:  0.04;

MIDDLETON      CLOUDY    46  40  82 N7        30.06F
6HR MIN TEMP:  46; 6HR MAX TEMP:  47;

WATERTOWN      CLOUDY    45  44  98 N6        30.06S
6HR MIN TEMP:  45; 6HR MAX TEMP:  47; 6HR PCP:  0.05;

MONROE         CLOUDY    43  41  93 N13G18    30.01F
JANESVILLE     CLOUDY    46  43  87 N8        30.01F
$$

WIZ051-052-058>065-066-070>072-290700-
SOUTHEAST WISCONSIN

CITY           SKY/WX    TMP DP  RH WIND       PRES   REMARKS
MILWAUKEE      CLOUDY    45  41  86 NE9       30.04F
6HR MIN TEMP:  44; 6HR MAX TEMP:  47; 6HR PCP: TRACE;

WAUKESHA       CLOUDY    43  39  87 N6        30.06S
MILWAUKEE/TIMM CLOUDY    45  37  76 N6        30.06S
RACINE         CLOUDY    42  38  85 N10       30.05F
6HR MIN TEMP:  42; 6HR MAX TEMP:  46; 6HR PCP: TRACE;

KENOSHA        CLOUDY    44  41  89 NE9       30.03F
6HR MIN TEMP:  44; 6HR MAX TEMP:  48;

FOND DU LAC    CLOUDY    47  35  63 NE16      30.10R
6HR MIN TEMP:  46; 6HR MAX TEMP:  48; 6HR PCP:  0.05;

SHEBOYGAN      CLOUDY    43  39  86 N9        30.08R
6HR MIN TEMP:  42; 6HR MAX TEMP:  45; 6HR PCP:  0.08;

WEST BEND      CLOUDY    45  43  93 N5        30.06S
JUNEAU         CLOUDY    44  38  81 N7        30.08R
6HR MIN TEMP:  44; 6HR MAX TEMP:  46; 6HR PCP:  0.05;

$$

LSZ147-162-290700-
LAKE SUPERIOR

STATION/POSITION TIME  TEMP    WIND        PRES    WAVE
                       AIR SEA DIR/SP/G            HT/PER
                 (UTC) (F)     (DEG/KT/KT) (MB)    (FT/S)
DEVILS ISLAND    0600   37     310/  5/  5 1022.7R
PORT WING        0530   30     150/  3/  4 1022.0R
SAXON HARBOR     0530   30     190/  3/  4 1021.3R
$$

LMZ867-665-643>646-290700-
LAKE MICHIGAN

STATION/POSITION TIME  TEMP    WIND        PRES    WAVE
                       AIR SEA DIR/SP/G            HT/PER
                 (UTC) (F)     (DEG/KT/KT) (MB)    (FT/S)
CHAMBERS ISLAND  0540   40     320/ 10/ 14 1019.0R
N MID LAKE BUOY  0550   38 37   10/  2/  2 1020.3R   1/ 4
NORT



USA.gov is the U.S. government's official web portal to all federal, state and local government web resources and services.